| time (UTC) | temp C | wind direction | speed KPH | gust KPH | rain 1hr cm | rain 24hr cm | rain mn cm | humidity % | barometer mb |
| 20260510213033 | 18 | 37 | 0.0 | 0.0 | 0.00 | 0.56 | 0.00 | 84 | 1012.5 |
| 20260510212526 | 18 | 37 | 0.0 | 0.0 | 0.00 | 0.56 | 0.00 | 83 | 1012.5 |
| 20260510212015 | 18 | 37 | 0.0 | 1.6 | 0.00 | 0.56 | 0.00 | 82 | 1012.5 |
| 20260510211509 | 18 | 37 | 0.0 | 1.6 | 0.00 | 0.56 | 0.00 | 83 | 1012.6 |
| 20260510211001 | 18 | 37 | 0.0 | 1.6 | 0.00 | 0.56 | 0.00 | 82 | 1012.5 |
| 20260510210556 | 18 | 37 | 0.0 | 1.6 | 0.00 | 0.56 | 0.00 | 83 | 1012.5 |
| 20260510210048 | 18 | 30 | 0.0 | 0.0 | 0.00 | 0.56 | 0.00 | 82 | 1012.5 |
| 20260510205538 | 18 | 30 | 0.0 | 0.0 | 0.00 | 0.66 | 0.00 | 83 | 1012.3 |
| 20260510205032 | 18 | 30 | 0.0 | 1.6 | 0.00 | 0.66 | 0.00 | 82 | 1012.2 |
| 20260510204524 | 18 | 30 | 0.0 | 1.6 | 0.00 | 0.66 | 0.00 | 81 | 1012.2 |
| 20260510204013 | 18 | 56 | 0.0 | 0.0 | 0.00 | 0.66 | 0.00 | 81 | 1012.2 |
| 20260510203504 | 19 | 56 | 0.0 | 1.6 | 0.00 | 0.66 | 0.00 | 81 | 1012.1 |
| 20260510203058 | 19 | 56 | 0.0 | 1.6 | 0.00 | 0.66 | 0.00 | 82 | 1012.2 |
| 20260510202551 | 18 | 56 | 0.0 | 1.6 | 0.00 | 0.66 | 0.00 | 82 | 1012.1 |
| 20260510202043 | 19 | 55 | 0.0 | 1.6 | 0.00 | 0.66 | 0.00 | 81 | 1012.2 |
| 20260510201538 | 19 | 60 | 0.0 | 1.6 | 0.00 | 0.66 | 0.00 | 81 | 1012.2 |
| 20260510201031 | 19 | 46 | 0.0 | 1.6 | 0.00 | 0.66 | 0.00 | 82 | 1012.1 |
| 20260510200522 | 18 | 74 | 0.0 | 1.6 | 0.00 | 0.66 | 0.00 | 81 | 1012.3 |
| 20260510200017 | 18 | 23 | 0.0 | 1.6 | 0.00 | 0.89 | 0.00 | 82 | 1012.3 |
| 20260510195504 | 18 | 65 | 0.0 | 1.6 | 0.00 | 0.89 | 0.00 | 82 | 1012.4 |
| 20260510195059 | 18 | 84 | 0.0 | 1.6 | 0.00 | 0.89 | 0.00 | 81 | 1012.4 |
| 20260510194557 | 18 | 37 | 0.0 | 1.6 | 0.00 | 0.89 | 0.00 | 82 | 1012.5 |
| 20260510194045 | 18 | 46 | 0.0 | 0.0 | 0.00 | 0.89 | 0.00 | 82 | 1012.4 |
| 20260510193539 | 18 | 47 | 0.0 | 0.0 | 0.00 | 0.89 | 0.00 | 82 | 1012.4 |
| 20260510193033 | 18 | 46 | 0.0 | 0.0 | 0.00 | 0.89 | 0.00 | 83 | 1012.4 |
| 20260510192527 | 18 | 46 | 0.0 | 0.0 | 0.00 | 0.89 | 0.00 | 82 | 1012.4 |
| 20260510192017 | 18 | 46 | 0.0 | 0.0 | 0.00 | 0.89 | 0.00 | 82 | 1012.5 |
| 20260510191511 | 18 | 46 | 0.0 | 1.6 | 0.00 | 0.89 | 0.00 | 82 | 1012.6 |
| 20260510191005 | 18 | 46 | 0.0 | 1.6 | 0.00 | 0.89 | 0.00 | 81 | 1012.6 |
| 20260510190559 | 18 | 46 | 0.0 | 0.0 | 0.00 | 0.89 | 0.00 | 81 | 1012.6 |
| 20260510190055 | 18 | 46 | 0.0 | 0.0 | 0.00 | 0.89 | 0.00 | 80 | 1012.6 |
| 20260510185544 | 19 | 46 | 0.0 | 0.0 | 0.00 | 0.94 | 0.00 | 80 | 1012.7 |
| 20260510185037 | 19 | 46 | 0.0 | 0.0 | 0.00 | 0.94 | 0.00 | 79 | 1012.6 |
| 20260510184535 | 19 | 46 | 0.0 | 1.6 | 0.00 | 0.94 | 0.00 | 77 | 1012.6 |
| 20260510184022 | 19 | 49 | 0.0 | 1.6 | 0.00 | 0.94 | 0.00 | 77 | 1012.5 |
| 20260510183515 | 20 | 17 | 0.0 | 1.6 | 0.00 | 0.94 | 0.00 | 76 | 1012.6 |
| 20260510183007 | 20 | 7 | 0.0 | 1.6 | 0.00 | 0.94 | 0.00 | 75 | 1012.6 |
| 20260510182604 | 20 | 20 | 0.0 | 4.8 | 0.00 | 0.94 | 0.00 | 75 | 1012.6 |
| 20260510182055 | 20 | 15 | 0.0 | 4.8 | 0.00 | 0.94 | 0.00 | 73 | 1012.6 |
| 20260510181554 | 20 | 10 | 0.0 | 3.2 | 0.00 | 0.94 | 0.00 | 75 | 1012.5 |
| 20260510181041 | 20 | 17 | 0.0 | 3.2 | 0.00 | 0.94 | 0.00 | 74 | 1012.6 |
| 20260510180534 | 20 | 63 | 0.0 | 3.2 | 0.00 | 0.94 | 0.00 | 74 | 1012.7 |
| 20260510180025 | 20 | 25 | 0.0 | 6.4 | 0.00 | 0.94 | 0.00 | 74 | 1012.6 |
| 20260510175513 | 20 | 337 | 0.0 | 6.4 | 0.00 | 0.94 | 0.00 | 73 | 1012.8 |
| 20260510175006 | 20 | 221 | 0.0 | 4.8 | 0.00 | 0.94 | 0.00 | 76 | 1012.9 |
| 20260510174600 | 20 | 41 | 0.0 | 4.8 | 0.00 | 0.94 | 0.00 | 77 | 1012.8 |
| 20260510174053 | 20 | 11 | 0.0 | 3.2 | 0.00 | 0.94 | 0.00 | 75 | 1012.9 |
| 20260510173540 | 20 | 349 | 0.0 | 3.2 | 0.00 | 0.94 | 0.00 | 77 | 1012.9 |
| 20260510173037 | 19 | 336 | 0.0 | 3.2 | 0.00 | 0.94 | 0.00 | 78 | 1012.9 |
| 20260510172525 | 19 | 26 | 0.0 | 1.6 | 0.00 | 0.94 | 0.00 | 82 | 1012.9 |
| 20260510172015 | 18 | 41 | 0.0 | 1.6 | 0.00 | 0.94 | 0.00 | 82 | 1012.7 |
| 20260510171510 | 18 | 25 | 0.0 | 1.6 | 0.00 | 0.94 | 0.00 | 81 | 1012.6 |
| 20260510171001 | 18 | 52 | 0.0 | 1.6 | 0.00 | 0.94 | 0.00 | 80 | 1012.6 |
| 20260510170555 | 18 | 51 | 0.0 | 1.6 | 0.00 | 0.94 | 0.00 | 81 | 1012.7 |
| 20260510170055 | 18 | 72 | 0.0 | 1.6 | 0.00 | 0.94 | 0.00 | 82 | 1012.7 |
| 20260510165541 | 18 | 342 | 0.0 | 1.6 | 0.00 | 0.94 | 0.00 | 85 | 1012.9 |
| 20260510165033 | 18 | 20 | 0.0 | 1.6 | 0.00 | 0.94 | 0.00 | 84 | 1013.1 |
| 20260510164524 | 18 | 53 | 0.0 | 1.6 | 0.00 | 0.94 | 0.00 | 86 | 1013.0 |
| 20260510164018 | 18 | 29 | 0.0 | 1.6 | 0.00 | 0.94 | 0.00 | 84 | 1013.0 |
| 20260510163512 | 18 | 70 | 0.0 | 4.8 | 0.00 | 0.94 | 0.00 | 84 | 1013.0 |
| 20260510163009 | 17 | 48 | 0.0 | 4.8 | 0.00 | 0.94 | 0.00 | 85 | 1013.0 |
| 20260510162559 | 17 | 34 | 0.0 | 4.8 | 0.00 | 0.94 | 0.00 | 86 | 1013.1 |
| 20260510162054 | 17 | 196 | 0.0 | 3.2 | 0.00 | 0.94 | 0.00 | 87 | 1013.1 |
| 20260510161545 | 17 | 288 | 0.0 | 1.6 | 0.00 | 0.94 | 0.00 | 88 | 1013.1 |
| 20260510161037 | 16 | 66 | 0.0 | 1.6 | 0.00 | 0.94 | 0.00 | 87 | 1013.1 |
| 20260510160531 | 16 | 17 | 0.0 | 3.2 | 0.00 | 0.94 | 0.00 | 89 | 1013.2 |
| 20260510160028 | 16 | 305 | 0.0 | 1.6 | 0.00 | 0.94 | 0.00 | 91 | 1013.0 |
| 20260510155520 | 16 | 223 | 0.0 | 3.2 | 0.00 | 0.94 | 0.00 | 91 | 1013.1 |
| 20260510155010 | 16 | 302 | 0.0 | 1.6 | 0.00 | 0.94 | 0.00 | 92 | 1013.1 |
| 20260510154603 | 15 | 51 | 0.0 | 0.0 | 0.00 | 0.94 | 0.00 | 92 | 1013.2 |
| 20260510154053 | 15 | 59 | 0.0 | 1.6 | 0.00 | 0.94 | 0.00 | 92 | 1013.3 |
| 20260510153546 | 15 | 347 | 0.0 | 1.6 | 0.00 | 0.94 | 0.00 | 93 | 1013.5 |
| 20260510153040 | 15 | 55 | 0.0 | 1.6 | 0.00 | 0.94 | 0.00 | 93 | 1013.7 |
| 20260510152534 | 14 | 79 | 0.0 | 1.6 | 0.00 | 0.94 | 0.00 | 93 | 1013.7 |
| 20260510152022 | 14 | 2 | 0.0 | 1.6 | 0.00 | 0.94 | 0.00 | 93 | 1013.6 |
| 20260510151514 | 14 | 25 | 0.0 | 1.6 | 0.00 | 0.94 | 0.00 | 94 | 1013.7 |
| 20260510151004 | 13 | 25 | 0.0 | 1.6 | 0.00 | 0.94 | 0.00 | 94 | 1013.7 |
| 20260510150557 | 13 | 52 | 0.0 | 1.6 | 0.00 | 0.94 | 0.00 | 94 | 1013.8 |
| 20260510150054 | 13 | 4 | 0.0 | 1.6 | 0.00 | 0.94 | 0.00 | 94 | 1013.7 |
| 20260510145549 | 13 | 347 | 0.0 | 1.6 | 0.00 | 0.94 | 0.00 | 94 | 1013.7 |
| 20260510145036 | 13 | 53 | 0.0 | 0.0 | 0.00 | 0.94 | 0.00 | 94 | 1013.5 |
| 20260510144530 | 12 | 69 | 0.0 | 1.6 | 0.00 | 0.94 | 0.00 | 94 | 1013.6 |
| 20260510144020 | 12 | 34 | 0.0 | 0.0 | 0.00 | 0.94 | 0.00 | 94 | 1013.5 |
| 20260510143513 | 12 | 34 | 0.0 | 1.6 | 0.00 | 0.94 | 0.00 | 94 | 1013.5 |
| 20260510143010 | 12 | 20 | 0.0 | 1.6 | 0.00 | 0.94 | 0.00 | 94 | 1013.4 |
| 20260510142559 | 12 | 20 | 0.0 | 1.6 | 0.00 | 0.94 | 0.00 | 94 | 1013.4 |
| 20260510142051 | 12 | 20 | 0.0 | 0.0 | 0.00 | 0.94 | 0.00 | 94 | 1013.3 |
| 20260510141547 | 12 | 20 | 0.0 | 0.0 | 0.00 | 0.94 | 0.00 | 94 | 1013.2 |
| 20260510141036 | 12 | 22 | 0.0 | 1.6 | 0.00 | 0.94 | 0.00 | 94 | 1013.2 |
| 20260510140530 | 12 | 15 | 0.0 | 1.6 | 0.00 | 0.94 | 0.00 | 94 | 1013.2 |
| 20260510140021 | 12 | 15 | 0.0 | 0.0 | 0.00 | 0.94 | 0.00 | 94 | 1013.2 |
| 20260510135516 | 12 | 65 | 0.0 | 1.6 | 0.00 | 0.94 | 0.00 | 94 | 1013.2 |
| 20260510135008 | 12 | 8 | 0.0 | 0.0 | 0.00 | 0.94 | 0.00 | 94 | 1013.2 |
| 20260510134608 | 12 | 8 | 0.0 | 0.0 | 0.00 | 0.94 | 0.00 | 94 | 1013.2 |
| 20260510134054 | 12 | 4 | 0.0 | 1.6 | 0.00 | 0.94 | 0.00 | 94 | 1013.0 |
| 20260510133548 | 12 | 307 | 0.0 | 1.6 | 0.00 | 0.94 | 0.00 | 95 | 1013.0 |
| 20260510133038 | 12 | 39 | 0.0 | 0.0 | 0.00 | 0.94 | 0.00 | 95 | 1012.9 |
| 20260510132531 | 12 | 39 | 0.0 | 0.0 | 0.00 | 0.94 | 0.00 | 95 | 1013.0 |
| 20260510132022 | 12 | 39 | 0.0 | 0.0 | 0.00 | 0.94 | 0.00 | 95 | 1013.1 |
| 20260510131513 | 12 | 39 | 0.0 | 0.0 | 0.00 | 0.94 | 0.00 | 95 | 1013.1 |
| 20260510131005 | 12 | 39 | 0.0 | 0.0 | 0.00 | 0.94 | 0.00 | 95 | 1013.1 |
| 20260510130600 | 12 | 39 | 0.0 | 0.0 | 0.00 | 0.94 | 0.00 | 95 | 1013.1 |
| 20260510130053 | 12 | 39 | 0.0 | 0.0 | 0.00 | 0.94 | 0.00 | 95 | 1013.1 |
| 20260510125543 | 12 | 39 | 0.0 | 0.0 | 0.00 | 0.99 | 0.00 | 95 | 1013.1 |
| 20260510125036 | 12 | 39 | 0.0 | 0.0 | 0.00 | 0.99 | 0.00 | 95 | 1013.1 |
| 20260510124528 | 12 | 39 | 0.0 | 0.0 | 0.00 | 0.99 | 0.00 | 95 | 1012.9 |
| 20260510124025 | 12 | 39 | 0.0 | 0.0 | 0.00 | 0.99 | 0.00 | 95 | 1012.9 |
| 20260510123513 | 12 | 39 | 0.0 | 0.0 | 0.00 | 0.99 | 0.00 | 95 | 1012.8 |
| 20260510123007 | 12 | 39 | 0.0 | 0.0 | 0.00 | 0.99 | 0.00 | 95 | 1012.8 |
| 20260510122601 | 12 | 39 | 0.0 | 0.0 | 0.00 | 0.99 | 0.00 | 95 | 1012.7 |
| 20260510122052 | 12 | 25 | 0.0 | 0.0 | 0.00 | 0.99 | 0.00 | 95 | 1012.7 |
| 20260510121543 | 11 | 25 | 0.0 | 0.0 | 0.00 | 0.99 | 0.00 | 95 | 1012.7 |
| 20260510121036 | 11 | 25 | 0.0 | 0.0 | 0.00 | 0.99 | 0.00 | 95 | 1012.7 |
| 20260510120528 | 11 | 25 | 0.0 | 0.0 | 0.00 | 0.99 | 0.00 | 95 | 1012.7 |
| 20260510120019 | 11 | 25 | 0.0 | 0.0 | 0.00 | 0.99 | 0.00 | 95 | 1012.8 |
| 20260510115513 | 11 | 25 | 0.0 | 1.6 | 0.00 | 0.99 | 0.00 | 95 | 1012.7 |
| 20260510115005 | 11 | 25 | 0.0 | 1.6 | 0.00 | 0.99 | 0.00 | 95 | 1012.4 |
| 20260510114602 | 11 | 25 | 0.0 | 0.0 | 0.00 | 0.99 | 0.00 | 95 | 1012.3 |
| 20260510114053 | 11 | 25 | 0.0 | 0.0 | 0.00 | 0.99 | 0.00 | 95 | 1012.2 |
| 20260510113545 | 11 | 25 | 0.0 | 0.0 | 0.00 | 0.99 | 0.00 | 95 | 1012.2 |
| 20260510113040 | 11 | 25 | 0.0 | 0.0 | 0.00 | 0.99 | 0.00 | 95 | 1012.0 |
| 20260510112533 | 11 | 25 | 0.0 | 1.6 | 0.00 | 0.99 | 0.00 | 95 | 1012.1 |
| 20260510112024 | 11 | 25 | 0.0 | 1.6 | 0.00 | 0.99 | 0.00 | 95 | 1012.1 |
| 20260510111518 | 11 | 25 | 0.0 | 0.0 | 0.00 | 0.99 | 0.00 | 95 | 1012.2 |
| 20260510111010 | 11 | 25 | 0.0 | 0.0 | 0.00 | 0.99 | 0.00 | 95 | 1012.3 |
| 20260510110504 | 11 | 25 | 0.0 | 0.0 | 0.00 | 0.99 | 0.00 | 95 | 1012.3 |
| 20260510110059 | 11 | 25 | 0.0 | 0.0 | 0.00 | 0.99 | 0.00 | 95 | 1012.2 |
| 20260510105555 | 11 | 25 | 0.0 | 0.0 | 0.00 | 0.99 | 0.00 | 95 | 1012.2 |
| 20260510105046 | 11 | 25 | 0.0 | 0.0 | 0.00 | 0.99 | 0.00 | 95 | 1012.1 |
| 20260510104539 | 11 | 25 | 0.0 | 0.0 | 0.00 | 0.99 | 0.00 | 95 | 1012.1 |
| 20260510104030 | 11 | 25 | 0.0 | 0.0 | 0.00 | 0.99 | 0.00 | 95 | 1012.0 |
| 20260510103523 | 10 | 25 | 0.0 | 0.0 | 0.00 | 0.99 | 0.00 | 95 | 1012.0 |
| 20260510103016 | 10 | 25 | 0.0 | 0.0 | 0.00 | 0.99 | 0.00 | 95 | 1011.9 |
| 20260510102509 | 10 | 25 | 0.0 | 0.0 | 0.00 | 0.99 | 0.00 | 95 | 1011.9 |
| 20260510102104 | 10 | 25 | 0.0 | 0.0 | 0.00 | 0.99 | 0.00 | 95 | 1012.0 |
| 20260510101605 | 10 | 25 | 0.0 | 0.0 | 0.00 | 0.99 | 0.00 | 95 | 1011.9 |
| 20260510101046 | 10 | 25 | 0.0 | 0.0 | 0.00 | 0.99 | 0.00 | 95 | 1011.8 |
| 20260510100539 | 10 | 25 | 0.0 | 0.0 | 0.00 | 0.99 | 0.00 | 95 | 1012.0 |
| 20260510100037 | 10 | 25 | 0.0 | 0.0 | 0.00 | 0.99 | 0.00 | 95 | 1012.1 |
| 20260510095524 | 10 | 25 | 0.0 | 0.0 | 0.00 | 0.99 | 0.00 | 95 | 1012.1 |
| 20260510095016 | 10 | 25 | 0.0 | 0.0 | 0.00 | 0.99 | 0.00 | 95 | 1012.1 |
| 20260510094523 | 10 | 25 | 0.0 | 0.0 | 0.00 | 0.99 | 0.00 | 95 | 1012.2 |
| 20260510094003 | 10 | 25 | 0.0 | 0.0 | 0.00 | 0.99 | 0.00 | 95 | 1012.3 |
| 20260510093557 | 11 | 25 | 0.0 | 0.0 | 0.00 | 0.99 | 0.00 | 95 | 1012.3 |
| 20260510093051 | 11 | 25 | 0.0 | 0.0 | 0.00 | 0.99 | 0.00 | 95 | 1012.3 |
| 20260510092544 | 11 | 25 | 0.0 | 0.0 | 0.00 | 0.99 | 0.00 | 95 | 1012.2 |
| 20260510092038 | 11 | 25 | 0.0 | 0.0 | 0.00 | 0.99 | 0.00 | 95 | 1012.3 |
| 20260510091531 | 11 | 25 | 0.0 | 0.0 | 0.00 | 0.99 | 0.00 | 95 | 1012.3 |
| 20260510091023 | 11 | 25 | 0.0 | 0.0 | 0.00 | 0.99 | 0.00 | 95 | 1012.3 |
| 20260510090515 | 11 | 25 | 0.0 | 0.0 | 0.00 | 0.99 | 0.00 | 95 | 1012.2 |
| 20260510090010 | 11 | 25 | 0.0 | 0.0 | 0.00 | 0.99 | 0.00 | 95 | 1012.1 |
| 20260510085503 | 11 | 25 | 0.0 | 0.0 | 0.00 | 0.99 | 0.00 | 95 | 1012.4 |
| 20260510085059 | 11 | 25 | 0.0 | 0.0 | 0.00 | 0.99 | 0.00 | 95 | 1012.4 |
| 20260510084552 | 11 | 25 | 0.0 | 0.0 | 0.00 | 0.99 | 0.00 | 95 | 1012.6 |
| 20260510084045 | 11 | 25 | 0.0 | 0.0 | 0.00 | 0.99 | 0.00 | 95 | 1012.4 |
| 20260510083539 | 11 | 25 | 0.0 | 0.0 | 0.00 | 0.99 | 0.00 | 95 | 1012.4 |
| 20260510083031 | 11 | 25 | 0.0 | 0.0 | 0.00 | 0.99 | 0.00 | 95 | 1012.4 |
| 20260510082522 | 11 | 25 | 0.0 | 0.0 | 0.00 | 0.99 | 0.00 | 95 | 1012.2 |
| 20260510082015 | 11 | 25 | 0.0 | 0.0 | 0.00 | 0.99 | 0.00 | 95 | 1012.2 |
| 20260510081517 | 11 | 25 | 0.0 | 0.0 | 0.00 | 0.99 | 0.00 | 95 | 1012.1 |
| 20260510081100 | 11 | 25 | 0.0 | 0.0 | 0.00 | 0.99 | 0.00 | 95 | 1012.0 |
| 20260510080552 | 11 | 25 | 0.0 | 0.0 | 0.00 | 0.99 | 0.00 | 95 | 1011.7 |
| 20260510080043 | 11 | 25 | 0.0 | 0.0 | 0.00 | 0.99 | 0.00 | 95 | 1011.5 |
| 20260510075531 | 11 | 25 | 0.0 | 0.0 | 0.00 | 0.99 | 0.00 | 95 | 1011.4 |
| 20260510075022 | 11 | 25 | 0.0 | 0.0 | 0.00 | 0.99 | 0.00 | 95 | 1011.3 |
| 20260510074513 | 11 | 25 | 0.0 | 0.0 | 0.00 | 0.99 | 0.00 | 95 | 1011.4 |
| 20260510074006 | 11 | 25 | 0.0 | 0.0 | 0.00 | 0.99 | 0.00 | 95 | 1011.5 |
| 20260510073602 | 11 | 25 | 0.0 | 0.0 | 0.00 | 0.99 | 0.00 | 95 | 1011.5 |
| 20260510073102 | 11 | 25 | 0.0 | 0.0 | 0.00 | 0.99 | 0.00 | 95 | 1011.5 |
| 20260510072546 | 11 | 25 | 0.0 | 0.0 | 0.00 | 0.99 | 0.00 | 95 | 1011.4 |
| 20260510072042 | 11 | 25 | 0.0 | 0.0 | 0.00 | 0.99 | 0.00 | 95 | 1011.6 |
| 20260510071533 | 11 | 25 | 0.0 | 0.0 | 0.00 | 0.99 | 0.00 | 95 | 1011.6 |
| 20260510071024 | 11 | 25 | 0.0 | 0.0 | 0.00 | 0.99 | 0.00 | 95 | 1011.5 |
| 20260510070518 | 11 | 25 | 0.0 | 0.0 | 0.00 | 0.99 | 0.00 | 95 | 1011.6 |
| 20260510070008 | 11 | 25 | 0.0 | 0.0 | 0.00 | 0.99 | 0.00 | 95 | 1011.6 |
| 20260510065502 | 11 | 25 | 0.0 | 0.0 | 0.00 | 0.99 | 0.00 | 95 | 1011.7 |
| 20260510065056 | 11 | 25 | 0.0 | 0.0 | 0.00 | 0.99 | 0.00 | 95 | 1011.7 |
| 20260510064550 | 11 | 25 | 0.0 | 0.0 | 0.00 | 0.99 | 0.00 | 95 | 1011.7 |
| 20260510064042 | 11 | 25 | 0.0 | 0.0 | 0.00 | 0.99 | 0.00 | 95 | 1011.7 |
| 20260510063535 | 11 | 25 | 0.0 | 0.0 | 0.00 | 0.99 | 0.00 | 95 | 1011.7 |
| 20260510063029 | 11 | 25 | 0.0 | 0.0 | 0.00 | 0.99 | 0.00 | 95 | 1011.6 |
| 20260510062518 | 11 | 25 | 0.0 | 0.0 | 0.00 | 0.99 | 0.00 | 95 | 1011.4 |
| 20260510062015 | 11 | 25 | 0.0 | 0.0 | 0.00 | 0.99 | 0.00 | 95 | 1011.4 |
| 20260510061505 | 11 | 25 | 0.0 | 0.0 | 0.00 | 0.99 | 0.00 | 95 | 1011.4 |
| 20260510061104 | 11 | 25 | 0.0 | 0.0 | 0.00 | 0.99 | 0.00 | 95 | 1011.3 |
| 20260510060553 | 11 | 25 | 0.0 | 0.0 | 0.00 | 0.99 | 0.00 | 95 | 1011.3 |
| 20260510060047 | 11 | 25 | 0.0 | 0.0 | 0.00 | 0.99 | 0.00 | 95 | 1011.2 |
| 20260510055539 | 11 | 25 | 0.0 | 0.0 | 0.00 | 0.99 | 0.00 | 95 | 1011.2 |
| 20260510055032 | 11 | 25 | 0.0 | 0.0 | 0.00 | 0.99 | 0.00 | 95 | 1011.3 |
| 20260510054526 | 11 | 25 | 0.0 | 0.0 | 0.00 | 0.99 | 0.00 | 95 | 1011.3 |
| 20260510054018 | 11 | 25 | 0.0 | 0.0 | 0.00 | 0.99 | 0.00 | 95 | 1011.3 |
| 20260510053511 | 11 | 25 | 0.0 | 0.0 | 0.00 | 0.99 | 0.00 | 95 | 1011.5 |
| 20260510053004 | 11 | 25 | 0.0 | 0.0 | 0.00 | 0.99 | 0.00 | 95 | 1011.6 |
| 20260510052559 | 11 | 25 | 0.0 | 0.0 | 0.00 | 0.99 | 0.00 | 95 | 1011.5 |
| 20260510052053 | 11 | 25 | 0.0 | 0.0 | 0.00 | 0.99 | 0.00 | 95 | 1011.5 |
| 20260510051546 | 11 | 25 | 0.0 | 0.0 | 0.00 | 0.99 | 0.00 | 95 | 1011.6 |
| 20260510051040 | 11 | 25 | 0.0 | 0.0 | 0.00 | 0.99 | 0.00 | 95 | 1011.6 |
| 20260510050529 | 11 | 25 | 0.0 | 0.0 | 0.00 | 0.99 | 0.00 | 95 | 1011.6 |
| 20260510050018 | 11 | 25 | 0.0 | 0.0 | 0.00 | 0.99 | 0.00 | 95 | 1011.7 |
| 20260510045515 | 11 | 25 | 0.0 | 0.0 | 0.00 | 0.99 | 0.00 | 95 | 1011.6 |
| 20260510045004 | 11 | 25 | 0.0 | 0.0 | 0.00 | 0.99 | 0.00 | 95 | 1011.7 |
| 20260510044559 | 11 | 25 | 0.0 | 0.0 | 0.00 | 0.99 | 0.00 | 95 | 1011.7 |
| 20260510044053 | 11 | 25 | 0.0 | 0.0 | 0.00 | 0.99 | 0.00 | 95 | 1011.6 |
| 20260510043546 | 11 | 25 | 0.0 | 0.0 | 0.00 | 0.99 | 0.00 | 95 | 1011.7 |
| 20260510043038 | 11 | 25 | 0.0 | 0.0 | 0.00 | 0.99 | 0.00 | 95 | 1011.5 |
| 20260510042530 | 11 | 25 | 0.0 | 0.0 | 0.00 | 0.99 | 0.00 | 95 | 1011.4 |
| 20260510042022 | 11 | 25 | 0.0 | 0.0 | 0.00 | 0.99 | 0.00 | 95 | 1011.4 |
| 20260510041514 | 11 | 25 | 0.0 | 0.0 | 0.00 | 0.99 | 0.00 | 95 | 1011.4 |
| 20260510041007 | 11 | 25 | 0.0 | 0.0 | 0.00 | 0.99 | 0.00 | 95 | 1011.3 |
| 20260510040601 | 11 | 25 | 0.0 | 0.0 | 0.00 | 0.99 | 0.00 | 95 | 1011.2 |
| 20260510040053 | 11 | 25 | 0.0 | 0.0 | 0.00 | 0.99 | 0.00 | 95 | 1011.2 |
| 20260510035547 | 11 | 25 | 0.0 | 0.0 | 0.00 | 0.99 | 0.99 | 95 | 1011.2 |
| 20260510035041 | 11 | 25 | 0.0 | 0.0 | 0.00 | 0.99 | 0.99 | 95 | 1011.2 |
| 20260510034537 | 11 | 25 | 0.0 | 0.0 | 0.00 | 0.99 | 0.99 | 95 | 1011.2 |
| 20260510034023 | 11 | 25 | 0.0 | 0.0 | 0.00 | 0.99 | 0.99 | 95 | 1011.1 |
| 20260510033516 | 11 | 25 | 0.0 | 0.0 | 0.00 | 0.99 | 0.99 | 95 | 1011.2 |
| 20260510033010 | 11 | 25 | 0.0 | 0.0 | 0.00 | 0.99 | 0.99 | 95 | 1011.2 |
| 20260510032506 | 11 | 25 | 0.0 | 0.0 | 0.00 | 0.99 | 0.99 | 95 | 1011.1 |
| 20260510032057 | 11 | 25 | 0.0 | 0.0 | 0.00 | 0.99 | 0.99 | 95 | 1011.1 |
| 20260510031555 | 11 | 25 | 0.0 | 0.0 | 0.00 | 0.99 | 0.99 | 95 | 1011.1 |
| 20260510031046 | 11 | 25 | 0.0 | 0.0 | 0.00 | 0.99 | 0.99 | 95 | 1011.3 |
| 20260510030536 | 11 | 25 | 0.0 | 0.0 | 0.00 | 0.99 | 0.99 | 95 | 1011.5 |
| 20260510030035 | 11 | 25 | 0.0 | 0.0 | 0.00 | 0.99 | 0.99 | 95 | 1011.5 |
| 20260510025520 | 11 | 25 | 0.0 | 0.0 | 0.00 | 0.99 | 0.99 | 95 | 1011.6 |
| 20260510025013 | 11 | 25 | 0.0 | 0.0 | 0.00 | 0.99 | 0.99 | 95 | 1011.4 |
| 20260510024506 | 11 | 25 | 0.0 | 0.0 | 0.00 | 0.99 | 0.99 | 95 | 1011.5 |
| 20260510024059 | 11 | 25 | 0.0 | 0.0 | 0.00 | 0.99 | 0.99 | 95 | 1011.4 |
| 20260510023554 | 11 | 25 | 0.0 | 0.0 | 0.00 | 0.99 | 0.99 | 95 | 1011.4 |
| 20260510023046 | 11 | 25 | 0.0 | 0.0 | 0.00 | 0.99 | 0.99 | 95 | 1011.5 |
| 20260510022540 | 11 | 25 | 0.0 | 0.0 | 0.00 | 0.99 | 0.99 | 95 | 1011.4 |
| 20260510022032 | 11 | 25 | 0.0 | 0.0 | 0.00 | 0.99 | 0.99 | 95 | 1011.4 |
| 20260510021531 | 11 | 25 | 0.0 | 0.0 | 0.00 | 0.99 | 0.99 | 95 | 1011.3 |
| 20260510021018 | 11 | 25 | 0.0 | 0.0 | 0.00 | 0.99 | 0.99 | 95 | 1011.2 |
| 20260510020512 | 11 | 25 | 0.0 | 0.0 | 0.00 | 0.99 | 0.99 | 95 | 1011.3 |
| 20260510020003 | 11 | 24 | 0.0 | 0.0 | 0.00 | 0.99 | 0.99 | 95 | 1011.3 |
| 20260510015600 | 11 | 24 | 0.0 | 0.0 | 0.00 | 0.99 | 0.99 | 95 | 1011.4 |
| 20260510015051 | 11 | 24 | 0.0 | 0.0 | 0.00 | 0.99 | 0.99 | 95 | 1011.3 |
| 20260510014552 | 11 | 24 | 0.0 | 0.0 | 0.00 | 0.99 | 0.99 | 95 | 1011.3 |
| 20260510014038 | 11 | 24 | 0.0 | 0.0 | 0.00 | 0.99 | 0.99 | 95 | 1011.3 |
| 20260510013533 | 11 | 25 | 0.0 | 0.0 | 0.00 | 0.99 | 0.99 | 94 | 1011.2 |
| 20260510013023 | 11 | 24 | 0.0 | 0.0 | 0.00 | 0.99 | 0.99 | 94 | 1011.1 |
| 20260510012515 | 11 | 24 | 0.0 | 0.0 | 0.00 | 0.99 | 0.99 | 94 | 1011.1 |
| 20260510012008 | 11 | 24 | 0.0 | 0.0 | 0.00 | 0.99 | 0.99 | 94 | 1011.1 |
| 20260510011504 | 11 | 24 | 0.0 | 0.0 | 0.00 | 0.99 | 0.99 | 94 | 1011.0 |
| 20260510011057 | 11 | 24 | 0.0 | 0.0 | 0.00 | 0.99 | 0.99 | 94 | 1010.9 |
| 20260510010550 | 11 | 24 | 0.0 | 0.0 | 0.00 | 0.99 | 0.99 | 94 | 1010.8 |
| 20260510010043 | 11 | 38 | 0.0 | 0.0 | 0.00 | 0.99 | 0.99 | 94 | 1010.9 |
| 20260510005535 | 11 | 37 | 0.0 | 0.0 | 0.03 | 0.99 | 0.99 | 94 | 1010.9 |
| 20260510005028 | 11 | 37 | 0.0 | 0.0 | 0.03 | 0.99 | 0.99 | 94 | 1010.9 |
| 20260510004521 | 11 | 37 | 0.0 | 0.0 | 0.03 | 0.99 | 0.99 | 94 | 1010.9 |
| 20260510004014 | 11 | 38 | 0.0 | 0.0 | 0.03 | 0.99 | 0.99 | 94 | 1010.8 |
| 20260510003508 | 11 | 37 | 0.0 | 0.0 | 0.03 | 0.99 | 0.99 | 94 | 1010.8 |
| 20260510003059 | 11 | 37 | 0.0 | 0.0 | 0.03 | 0.99 | 0.99 | 94 | 1010.8 |
| 20260510002552 | 12 | 37 | 0.0 | 0.0 | 0.03 | 0.99 | 0.99 | 94 | 1010.7 |
| 20260510002044 | 12 | 38 | 0.0 | 0.0 | 0.03 | 0.99 | 0.99 | 94 | 1010.7 |
| 20260510001538 | 12 | 37 | 0.0 | 0.0 | 0.03 | 0.99 | 0.99 | 94 | 1010.6 |
| 20260510001031 | 12 | 37 | 0.0 | 0.0 | 0.03 | 0.99 | 0.99 | 94 | 1010.6 |
| 20260510000523 | 12 | 37 | 0.0 | 0.0 | 0.03 | 0.99 | 0.99 | 94 | 1010.7 |
| 20260510000019 | 12 | 37 | 0.0 | 0.0 | 0.00 | 1.42 | 0.97 | 94 | 1010.6 |
| 20260509235507 | 12 | 37 | 0.0 | 0.0 | 0.03 | 1.42 | 0.97 | 94 | 1010.5 |
| 20260509235102 | 12 | 37 | 0.0 | 0.0 | 0.05 | 1.42 | 0.97 | 94 | 1010.6 |
| 20260509234553 | 12 | 37 | 0.0 | 0.0 | 0.08 | 1.42 | 0.97 | 94 | 1010.7 |
| 20260509234045 | 12 | 38 | 0.0 | 0.0 | 0.10 | 1.42 | 0.97 | 94 | 1010.6 |
| 20260509233538 | 12 | 37 | 0.0 | 0.0 | 0.13 | 1.42 | 0.97 | 94 | 1010.7 |
| 20260509233031 | 12 | 38 | 0.0 | 0.0 | 0.15 | 1.42 | 0.97 | 94 | 1010.7 |
| 20260509232524 | 12 | 4 | 0.0 | 0.0 | 0.23 | 1.42 | 0.97 | 94 | 1010.7 |
| 20260509232016 | 12 | 4 | 0.0 | 1.6 | 0.28 | 1.42 | 0.97 | 94 | 1010.7 |
| 20260509231509 | 12 | 344 | 0.0 | 1.6 | 0.30 | 1.42 | 0.97 | 94 | 1010.4 |
| 20260509231002 | 12 | 50 | 0.0 | 0.0 | 0.33 | 1.42 | 0.97 | 94 | 1010.6 |
| 20260509230602 | 12 | 11 | 0.0 | 0.0 | 0.33 | 1.42 | 0.97 | 94 | 1010.5 |
| 20260509230050 | 12 | 11 | 0.0 | 0.0 | 0.36 | 1.42 | 0.97 | 94 | 1010.5 |
| 20260509225542 | 12 | 11 | 0.0 | 0.0 | 0.36 | 1.40 | 0.94 | 94 | 1010.9 |
| 20260509225037 | 12 | 11 | 0.0 | 0.0 | 0.36 | 1.37 | 0.91 | 94 | 1011.1 |
| 20260509224528 | 12 | 11 | 0.0 | 0.0 | 0.36 | 1.35 | 0.89 | 94 | 1011.2 |
| 20260509224019 | 12 | 11 | 0.0 | 0.0 | 0.33 | 1.32 | 0.86 | 94 | 1011.3 |
| 20260509223511 | 12 | 11 | 0.0 | 0.0 | 0.33 | 1.30 | 0.84 | 94 | 1011.4 |
| 20260509223006 | 12 | 10 | 0.0 | 0.0 | 0.28 | 1.24 | 0.79 | 94 | 1011.4 |
| 20260509222601 | 12 | 48 | 0.0 | 0.0 | 0.28 | 1.22 | 0.76 | 94 | 1011.4 |
| 20260509222051 | 12 | 47 | 0.0 | 0.0 | 0.20 | 1.14 | 0.69 | 94 | 1011.6 |
| 20260509221545 | 12 | 48 | 0.0 | 0.0 | 0.18 | 1.12 | 0.66 | 94 | 1011.6 |
| 20260509221037 | 12 | 48 | 0.0 | 0.0 | 0.15 | 1.09 | 0.64 | 94 | 1011.4 |
| 20260509220531 | 12 | 48 | 0.0 | 0.0 | 0.18 | 1.09 | 0.64 | 94 | 1011.3 |
| 20260509220022 | 12 | 48 | 0.0 | 0.0 | 0.18 | 1.07 | 0.61 | 94 | 1011.6 |
| 20260509215514 | 12 | 48 | 0.0 | 0.0 | 0.18 | 1.04 | 0.58 | 94 | 1011.5 |
| 20260509215009 | 12 | 48 | 0.0 | 0.0 | 0.18 | 1.02 | 0.56 | 94 | 1011.6 |
| 20260509214600 | 12 | 48 | 0.0 | 0.0 | 0.15 | 0.99 | 0.53 | 94 | 1011.7 |
| 20260509214054 | 12 | 48 | 0.0 | 0.0 | 0.15 | 0.99 | 0.53 | 94 | 1011.7 |
| 20260509213548 | 12 | 48 | 0.0 | 0.0 | 0.13 | 0.97 | 0.51 | 94 | 1011.7 |